COSMOS 726

导读 | 豆包AI

COSMOS 726是苏联(现归属独联体CIS)于1975年4月11日发射的卫星,属于苏联"宇宙"(COSMOS)系列卫星。冷战背景下,该系列多承担军事侦察与航天技术试验任务,COSMOS 726具体任务细节未公开,推测用于电子情报收集或空间技术验证,是苏联冷战太空部署的组成部分,现已完成使命,成为太空观测史上的早期卫星案例。

基本信息
目录编号:
7736
目录名称:
COSMOS 726
国际标识:
1975-028A
轨道中心:
EARTH
卫星名称:
COSMOS 726
卫星全名:
--
卫星状态:
在轨 (已飞行18621 天)
发射日期:
1975-04-11 UTC
国别 :
俄罗斯(独联体) (CIS)
星等 :
--
轨道信息
数据来源 国际轨道数据 AOE轨道数据
星历时间 2026-04-04T01:55:30+0800
8小时前
查看轨道信息
2026-04-02T17:00:00+0800
1天前
查看轨道信息
半长轴 7347.531km 7347.527km
偏心率 0.0024528 0.0024546
轨道倾角 82.991° 82.992°
近地点辐角 255.208° 259.309°
升交点赤经 276.987° 278.002°
平近点角 104.636° 136.557°
近地点 951.371km 951.354km
远地点 987.417km 987.426km
周期 104.465分钟 104.465分钟
每日圈数 13.78449 13.784499
详细信息
使用方式:
暂无
2D轨道图
3D轨道图
轨道高度分析图
轨道倾角分析图
轨道综合分析图
查看轨道综合分析图